SAUDISAT 1C 1 27607U 02058C 22176.65431099 .00000349 00000-0 68483-4 0 9991 2 27607 64.5551 276.8055 0078876 292.8499 66.4288 14.76142673 49583 SAUDISAT 2 1 28371U 04025F 22176.81716002 .00000195 00000-0 56525-4 0 9997 2 28371 98.3790 133.5770 0026921 79.2538 281.1692 14.54563853954505 SAUDISAT 3 1 31118U 07012B 22176.81873450 .00000134 00000-0 30874-4 0 9992 2 31118 97.9697 123.6614 0015400 164.1617 196.0074 14.69332586814380 PISAT 1 41784U 16059B 22176.88934271 .00000435 00000-0 91399-4 0 9992 2 41784 97.9149 219.9124 0032743 140.9904 219.3669 14.63920121306924 FLYING LAPTOP 1 42831U 17042G 22176.84683181 .00000320 00000-0 36873-4 0 9995 2 42831 97.4233 30.8170 0013529 346.6581 13.4274 14.91799384269340